TimeCST,TemperatureF,Dew PointF,Humidity,Sea Level PressureIn,VisibilityMPH,Wind Direction,Wind SpeedMPH,Gust SpeedMPH,PrecipitationIn,Events,Conditions,WindDirDegrees,DateUTC
12:53 AM,63.0,55.9,78,29.75,10.0,South,18.4,27.6,N/A,,Mostly Cloudy,180,2012-12-03 06:53:00
1:53 AM,64.0,55.0,73,29.71,10.0,South,21.9,28.8,N/A,,Mostly Cloudy,180,2012-12-03 07:53:00
2:53 AM,64.0,55.0,73,29.69,10.0,South,23.0,29.9,N/A,,Mostly Cloudy,180,2012-12-03 08:53:00
3:53 AM,63.0,55.9,78,29.68,10.0,South,20.7,29.9,N/A,,Scattered Clouds,190,2012-12-03 09:53:00
4:53 AM,63.0,55.9,78,29.66,10.0,South,23.0,31.1,N/A,,Partly Cloudy,180,2012-12-03 10:53:00
5:53 AM,62.1,55.9,80,29.68,9.0,South,19.6,31.1,N/A,,Partly Cloudy,190,2012-12-03 11:53:00
6:53 AM,60.1,55.9,86,29.69,8.0,South,19.6,26.5,N/A,,Scattered Clouds,190,2012-12-03 12:53:00
7:53 AM,60.1,55.9,86,29.71,6.0,South,19.6,-,N/A,,Scattered Clouds,190,2012-12-03 13:53:00
8:06 AM,60.8,55.4,82,29.73,6.0,South,23.0,31.1,N/A,,Mostly Cloudy,190,2012-12-03 14:06:00
8:53 AM,60.8,57.2,88,29.74,8.0,South,18.4,25.3,N/A,,Mostly Cloudy,190,2012-12-03 14:53:00
9:53 AM,63.0,57.0,81,29.73,9.0,South,24.2,33.4,N/A,,Mostly Cloudy,190,2012-12-03 15:53:00
10:02 AM,64.4,57.2,77,29.75,9.0,SSW,20.7,32.2,N/A,,Scattered Clouds,200,2012-12-03 16:02:00
10:53 AM,68.0,55.0,63,29.76,10.0,SSW,23.0,29.9,N/A,,Scattered Clouds,210,2012-12-03 16:53:00
11:53 AM,70.0,51.1,51,29.77,10.0,SW,15.0,-,N/A,,Mostly Cloudy,230,2012-12-03 17:53:00
12:53 PM,72.0,46.0,40,29.75,10.0,WSW,8.1,-,N/A,,Mostly Cloudy,250,2012-12-03 18:53:00
1:53 PM,70.0,44.1,39,29.78,10.0,WNW,10.4,-,N/A,,Mostly Cloudy,300,2012-12-03 19:53:00
2:53 PM,66.0,32.0,28,29.81,9.0,NNW,20.7,26.5,N/A,,Mostly Cloudy,340,2012-12-03 20:53:00
3:53 PM,61.0,39.0,44,29.86,10.0,North,17.3,31.1,N/A,,Mostly Cloudy,360,2012-12-03 21:53:00
4:53 PM,59.0,39.9,49,29.89,10.0,North,17.3,-,N/A,,Mostly Cloudy,10,2012-12-03 22:53:00
5:53 PM,57.9,41.0,53,29.93,10.0,North,12.7,-,N/A,,Mostly Cloudy,10,2012-12-03 23:53:00
6:53 PM,57.0,41.0,55,29.96,10.0,North,11.5,-,N/A,,Overcast,360,2012-12-04 00:53:00
7:53 PM,57.0,41.0,55,29.99,10.0,North,13.8,-,N/A,,Overcast,360,2012-12-04 01:53:00
8:53 PM,55.9,39.9,55,30.01,10.0,North,11.5,-,N/A,,Overcast,10,2012-12-04 02:53:00
9:53 PM,55.0,39.0,55,30.04,10.0,North,10.4,-,N/A,,Mostly Cloudy,10,2012-12-04 03:53:00
10:53 PM,54.0,37.9,55,30.05,10.0,North,12.7,-,N/A,,Mostly Cloudy,10,2012-12-04 04:53:00
11:53 PM,53.6,35.6,51,30.10,10.0,North,10.4,-,N/A,,Mostly Cloudy,10,2012-12-04 05:53:00